Date String (YYYY-MM-DD hh:mm:ss) UTC,Instrument flags,absolute air pressure of the measurement (hPa),sample flow rate (lpm),inlet stack bypass flow (lpm),air temperature of the measurement (°C),ambient temperature measured by the external sensor (°C),aerosol sample conditioner tube jacket temperature (°C),OPC LED temperature (°C),internal box temperature (°C),relative humidity of the measurement (%),span deviation,mass concentration of particles derived from Lorenz-Mie calculation of OPC scattering (μg/m³),mass concentration of particles derived from Lorenz-Mie calculation of OPC scattering (μg/m³),mass concentration of particles derived from Lorenz-Mie calculation of OPC scattering (μg/m³)
DateTimeUTC,F1_M11,P_M11,Q1_M11,Q2_M11,T1_M11,T2_M11,T3_M11,T4_M11,T5_M11,U1_M11,ZSPAN_M11,X0_M11,X2_M11,X1_M11
2023-12-17 06:00:00,SystemResetWarning,0830.4,5.00,000.00,023.8,022.7,000.0,032.2,025.1,7.5,0000.0,0001.56,0000.35,0000.26
2023-12-17 06:01:00,SystemResetWarning,0830.5,5.00,000.00,023.8,022.7,000.0,032.2,025.1,7.5,0000.0,0001.53,0000.34,0000.26
2023-12-17 06:02:00,SystemResetWarning,0830.4,5.00,000.00,023.8,022.7,000.0,032.2,025.2,7.5,0000.0,0001.56,0000.35,0000.26
2023-12-17 06:03:00,SystemResetWarning,0830.4,5.00,000.00,023.8,022.8,000.0,032.2,025.2,7.5,0000.0,0001.53,0000.34,0000.26
2023-12-17 06:04:00,SystemResetWarning,0830.4,5.01,000.00,023.8,022.7,000.0,032.2,025.2,7.6,0000.0,0001.50,0000.33,0000.26
2023-12-17 06:05:00,SystemResetWarning,0830.4,5.00,000.00,023.9,022.8,000.0,032.2,025.2,7.6,0000.0,0001.49,0000.33,0000.26
2023-12-17 06:06:00,SystemResetWarning,0830.4,5.00,000.00,023.9,022.8,000.0,032.2,025.2,7.5,0000.0,0001.50,0000.34,0000.27
2023-12-17 06:07:00,SystemResetWarning,0830.4,5.00,000.00,023.9,022.8,000.0,032.2,025.2,7.5,0000.0,0001.46,0000.32,0000.27
2023-12-17 06:08:00,SystemResetWarning,0830.5,4.99,000.00,023.9,022.8,000.0,032.2,025.2,7.7,0000.0,0001.44,0000.31,0000.26
2023-12-17 06:09:00,SystemResetWarning,0830.4,4.99,000.00,023.9,022.8,000.0,032.2,025.2,7.9,0000.0,0000.97,0000.30,0000.26
2023-12-17 06:10:00,SystemResetWarning,0830.4,5.00,000.00,023.9,022.8,000.0,032.2,025.2,7.8,0000.0,0000.42,0000.30,0000.26
2023-12-17 06:11:00,SystemResetWarning,0830.7,5.00,000.00,023.9,022.8,000.0,032.2,025.2,7.7,0000.0,0000.39,0000.29,0000.25
2023-12-17 06:12:00,SystemResetWarning,0830.5,5.01,000.00,023.9,022.8,000.0,032.2,025.3,7.6,0000.0,0000.38,0000.28,0000.25
2023-12-17 06:13:00,SystemResetWarning,0830.5,5.00,000.00,023.9,022.8,000.0,032.2,025.3,7.5,0000.0,0000.90,0000.27,0000.25
2023-12-17 06:14:00,SystemResetWarning,0830.4,4.99,000.00,023.9,022.9,000.0,032.2,025.3,7.6,0000.0,0001.24,0000.27,0000.24
2023-12-17 06:15:00,SystemResetWarning,0830.7,4.99,000.00,023.9,022.9,000.0,032.2,025.3,7.5,0000.0,0001.25,0000.28,0000.24
2023-12-17 06:16:00,SystemResetWarning,0830.6,5.00,000.00,023.9,022.9,000.0,032.2,025.4,7.6,0000.0,0001.24,0000.27,0000.24
2023-12-17 06:17:00,SystemResetWarning,0830.7,5.00,000.00,024.0,023.0,000.0,032.2,025.4,7.5,0000.0,0001.21,0000.25,0000.22
2023-12-17 06:18:00,SystemResetWarning,0830.4,5.01,000.00,024.0,023.0,000.0,032.2,025.4,7.5,0000.0,0001.22,0000.26,0000.22
2023-12-17 06:19:00,SystemResetWarning,0830.6,5.00,000.00,024.0,023.0,000.0,032.2,025.4,7.4,0000.0,0001.28,0000.27,0000.22
2023-12-17 06:20:00,SystemResetWarning,0830.4,5.00,000.00,024.0,023.0,000.0,032.2,025.4,7.4,0000.0,0001.28,0000.27,0000.22
2023-12-17 06:21:00,SystemResetWarning,0830.4,4.99,000.00,024.0,023.1,000.0,032.2,025.5,7.3,0000.0,0001.28,0000.27,0000.22
2023-12-17 06:22:00,SystemResetWarning,0830.5,4.99,000.00,024.0,023.1,000.0,032.2,025.5,7.3,0000.0,0001.28,0000.27,0000.22
2023-12-17 06:23:00,SystemResetWarning,0830.4,5.01,000.00,024.1,023.1,000.0,032.3,025.5,7.3,0000.0,0001.29,0000.27,0000.22
2023-12-17 06:24:00,SystemResetWarning,0830.4,5.01,000.00,024.1,023.1,000.0,032.3,025.5,7.3,0000.0,0000.66,0000.27,0000.23
2023-12-17 06:25:00,SystemResetWarning,0830.4,4.99,000.00,024.1,023.1,000.0,032.3,025.5,7.3,0000.0,0000.41,0000.27,0000.23
2023-12-17 06:26:00,SystemResetWarning,0830.4,4.99,000.00,024.1,023.1,000.0,032.3,025.5,7.3,0000.0,0000.39,0000.26,0000.23
2023-12-17 06:27:00,SystemResetWarning,0830.4,5.01,000.00,024.1,023.1,000.0,032.3,025.5,7.2,0000.0,0000.40,0000.27,0000.23
2023-12-17 06:28:00,SystemResetWarning,0830.4,5.01,000.00,024.1,023.1,000.0,032.3,025.5,7.2,0000.0,0000.42,0000.26,0000.23
2023-12-17 06:29:00,SystemResetWarning,0830.3,4.98,000.00,024.1,023.1,000.0,032.3,025.5,7.2,0000.0,0000.51,0000.26,0000.23
2023-12-17 06:30:00,SystemResetWarning,0830.3,5.00,000.00,024.1,023.1,000.0,032.3,025.5,7.2,0000.0,0000.46,0000.25,0000.23
2023-12-17 06:31:00,SystemResetWarning,0830.3,5.01,000.00,024.1,023.2,000.0,032.3,025.5,7.2,0000.0,0000.48,0000.26,0000.23
2023-12-17 06:32:00,SystemResetWarning,0830.3,5.00,000.00,024.1,023.2,000.0,032.3,025.5,7.2,0000.0,0000.47,0000.26,0000.23
2023-12-17 06:33:00,SystemResetWarning,0830.3,4.99,000.00,024.1,023.2,000.0,032.3,025.5,7.3,0000.0,0000.47,0000.26,0000.23
2023-12-17 06:34:00,SystemResetWarning,0830.2,5.00,000.00,024.2,023.2,000.0,032.4,025.5,7.2,0000.0,0000.52,0000.28,0000.24
2023-12-17 06:35:00,SystemResetWarning,0830.3,5.02,000.00,024.2,023.2,000.0,032.4,025.5,7.2,0000.0,0000.52,0000.28,0000.24
2023-12-17 06:36:00,SystemResetWarning,0830.2,4.99,000.00,024.2,023.2,000.0,032.4,025.5,7.1,0000.0,0000.54,0000.28,0000.24
2023-12-17 06:37:00,SystemResetWarning,0830.3,4.99,000.00,024.2,023.2,000.0,032.4,025.5,7.2,0000.0,0000.55,0000.28,0000.23
2023-12-17 06:38:00,SystemResetWarning,0830.2,5.00,000.00,024.2,023.2,000.0,032.4,025.5,7.2,0000.0,0000.54,0000.28,0000.23
2023-12-17 06:39:00,SystemResetWarning,0830.3,5.01,000.00,024.2,023.2,000.0,032.4,025.5,7.1,0000.0,0000.53,0000.28,0000.23
2023-12-17 06:40:00,SystemResetWarning,0830.2,5.00,000.00,024.2,023.2,000.0,032.4,025.5,7.1,0000.0,0000.38,0000.27,0000.23
2023-12-17 06:41:00,SystemResetWarning,0830.2,4.99,000.00,024.2,023.2,000.0,032.4,025.5,7.1,0000.0,0000.38,0000.27,0000.22
2023-12-17 06:42:00,SystemResetWarning,0830.1,4.99,000.00,024.2,023.2,000.0,032.4,025.6,7.2,0000.0,0000.34,0000.25,0000.23
2023-12-17 06:43:00,SystemResetWarning,0830.1,4.99,000.00,024.2,023.2,000.0,032.4,025.6,7.3,0000.0,0000.35,0000.26,0000.23
2023-12-17 06:44:00,SystemResetWarning,0830.1,5.00,000.00,024.2,023.3,000.0,032.4,025.6,7.2,0000.0,0000.35,0000.26,0000.23
2023-12-17 06:45:00,SystemResetWarning,0830.2,5.01,000.00,024.2,023.3,000.0,032.4,025.6,7.2,0000.0,0000.31,0000.24,0000.22
2023-12-17 06:46:00,SystemResetWarning,0830.2,5.01,000.00,024.2,023.3,000.0,032.4,025.6,7.2,0000.0,0000.32,0000.24,0000.22
2023-12-17 06:47:00,SystemResetWarning,0830.1,5.00,000.00,024.2,023.3,000.0,032.4,025.6,7.2,0000.0,0000.29,0000.23,0000.22
2023-12-17 06:48:00,SystemResetWarning,0830.1,5.00,000.00,024.2,023.2,000.0,032.4,025.6,7.2,0000.0,0000.32,0000.25,0000.22
2023-12-17 06:49:00,SystemResetWarning,0830.1,4.99,000.00,024.2,023.2,000.0,032.4,025.6,7.2,0000.0,0000.35,0000.26,0000.23
2023-12-17 06:50:00,SystemResetWarning,0830.2,5.00,000.00,024.2,023.3,000.0,032.5,025.6,7.1,0000.0,0000.35,0000.26,0000.23
2023-12-17 06:51:00,SystemResetWarning,0830.1,4.99,000.00,024.2,023.3,000.0,032.5,025.6,7.1,0000.0,0000.39,0000.28,0000.24
2023-12-17 06:52:00,SystemResetWarning,0830.1,5.01,000.00,024.3,023.3,000.0,032.5,025.6,7.3,0000.0,0000.43,0000.31,0000.25
2023-12-17 06:53:00,SystemResetWarning,0830.1,5.01,000.00,024.3,023.3,000.0,032.5,025.6,7.3,0000.0,0000.44,0000.31,0000.26
2023-12-17 06:54:00,SystemResetWarning,0830.1,5.00,000.00,024.3,023.3,000.0,032.5,025.6,7.3,0000.0,0000.49,0000.31,0000.25
2023-12-17 06:55:00,SystemResetWarning,0830.1,5.00,000.00,024.3,023.3,000.0,032.5,025.6,7.3,0000.0,0000.59,0000.33,0000.26
2023-12-17 06:56:00,SystemResetWarning,0830.1,5.00,000.00,024.3,023.3,000.0,032.5,025.6,7.3,0000.0,0000.74,0000.34,0000.26
2023-12-17 06:57:00,SystemResetWarning,0830.1,5.01,000.00,024.3,023.3,000.0,032.5,025.6,7.2,0000.0,0001.00,0000.35,0000.26
2023-12-17 06:58:00,SystemResetWarning,0830.1,4.99,000.00,024.3,023.3,000.0,032.5,025.6,7.2,0000.0,0001.00,0000.35,0000.27
2023-12-17 06:59:00,SystemResetWarning,0830.1,5.00,000.00,024.3,023.3,000.0,032.5,025.6,7.1,0000.0,0000.98,0000.34,0000.27
